This demonstration page uses our WeatherBlox Daily Observations layout. Learn more.

Left ArrowRight Arrow

Hourly Observations for February 6, 2020

Temp ( °F °C ) Dew Point ( °F °C ) Humidity (%) Winds ( mph kmh ) Pressure ( in mb ) Visibility ( mi km ) Precip ( " mm )
12:56 am 00:56 Clear 17 -8.3 13 -10.6 84 84 S 9 15 29.82 1010 10 16 0.00 0.00
1:56 am 01:56 Clear 17 -8.3 12 -11.1 80 80 SSW 9 15 29.79 1009 10 16 0.00 0.00
2:56 am 02:56 Clear 16 -8.9 11 -11.7 80 80 SSW 7 11 29.76 1008 10 16 0.00 0.00
3:56 am 03:56 Clear 14 -10 10 -12.2 84 84 SW 6 9 29.73 1007 10 16 0.00 0.00
4:56 am 04:56 Clear 16 -8.9 12 -11.1 84 84 WSW 6 9 29.72 1006 10 16 0.00 0.00
5:56 am 05:56 Clear 17 -8.3 12 -11.1 80 80 W 6 9 29.70 1006 10 16 0.00 0.00
6:56 am 06:56 Clear 15 -9.4 12 -11.1 88 88 SW 7 11 29.70 1006 10 16 0.00 0.00
7:56 am 07:56 Sunny 15 -9.4 11 -11.7 84 84 SW 5 7 29.71 1006 10 16 0.00 0.00
8:56 am 08:56 Sunny 21 -6.1 15 -9.4 78 78 WSW 6 9 29.71 1006 10 16 0.00 0.00
9:56 am 09:56 Sunny 26 -3.3 19 -7.2 75 75 WNW 5 7 29.70 1006 10 16 0.00 0.00
10:56 am 10:56 Sunny 31 -0.6 21 -6.1 67 67 Calm 29.68 1005 10 16 0.00 0.00
11:56 am 11:56 Sunny 35 1.7 19 -7.2 52 52 SSW 7 11 29.65 1004 10 16 0.00 0.00
12:56 pm 12:56 Sunny 38 3.3 18 -7.8 44 44 WSW 7 11 29.62 1003 10 16 0.00 0.00
1:56 pm 13:56 Sunny 39 3.9 18 -7.8 43 43 W 6 9 29.59 1002 10 16 0.00 0.00
2:56 pm 14:56 Sunny 41 5 19 -7.2 41 41 WNW 8 13 29.57 1001 10 16 0.00 0.00
3:56 pm 15:56 Sunny 41 5 20 -6.7 43 43 WNW 7 11 29.57 1001 10 16 0.00 0.00
4:56 pm 16:56 Sunny 42 5.6 20 -6.7 41 41 Calm 29.57 1001 10 16 0.00 0.00
5:56 pm 17:56 Partly Cloudy 36 2.2 22 -5.6 57 57 NE 5 7 29.59 1002 10 16 0.00 0.00
6:56 pm 18:56 Clear 36 2.2 22 -5.6 57 57 Calm 29.61 1003 10 16 0.00 0.00
7:56 pm 19:56 Cloudy 35 1.7 23 -5 61 61 W 5 7 29.63 1003 10 16 0.00 0.00
8:56 pm 20:56 Partly Cloudy 33 0.6 22 -5.6 64 64 NW 8 13 29.64 1004 10 16 0.00 0.00
9:56 pm 21:56 Mostly Cloudy 34 1.1 25 -3.9 70 70 NNW 12 19 29.65 1004 10 16 0.00 0.00
10:56 pm 22:56 Cloudy with Light Snow 33 0.6 28 -2.2 82 82 NNW 9 15 29.67 1005 9 14 0.00 0.00
11:09 pm 23:09 Cloudy with Light Snow 34 1 28 -2 81 81 NNW 8 13 29.71 1006 9 14 0.00 0.00
11:42 pm 23:42 Mostly Cloudy 34 1 28 -2 81 81 N 14 22 29.71 1006 10 16 0.00 0.00
11:56 pm 23:56 Cloudy 32 0 28 -2.2 85 85 N 14 22 29.68 1005 10 16 0.00 0.00

Powered by AerisWeather